Temp
70 70 70 72 74 76 76 76 77 76 75 75 75 77 79 80 81 80 79 80 80 80 81 81 82 81 81 81 81 81 81 79 79 80 79 78 79 78 78 78 78 79
72 72 72 72 73 75 76 77 77 76 76 76 75 77 79 81 81 81 79 80 80 80 81 81 82 81 81 81 81 79 80 80 79 82 79 78 79 79 78 78 78 79
73 73 73 72 73 74 75 77 77 76 74 76 76 76 77 80 81 81 80 80 80 80 80 80 80 80 80 80 79 79 79 80 79 81 79 79 79 79 79 79 78 78
73 73 74 74 74 74 76 77 77 77 77 76 75 76 79 80 80 80 77 78 79 79 79 78 78 78 79 80 79 79 79 80 80 80 79 79 79 80 79 79 79 79
73 74 75 75 75 75 74 75 76 76 77 76 76 77 78 79 72 66 65 67 72 77 76 76 70 68 72 75 78 78 78 78 80 80 79 79 79 79 79 79 78 78
74 76 77 76 76 73 69 71 74 75 75 74 74 77 78 75 70 69 67 67 68 68 71 70 68 68 70 72 75 76 75 77 79 80 79 79 80 80 80 79 78 78
74 75 76 77 76 74 69 70 70 72 75 75 73 74 76 76 73 70 69 68 71 70 70 68 68 68 69 70 72 74 78 79 81 81 79 80 80 79 80 80 79 79
74 75 77 77 76 76 75 75 72 72 74 75 72 73 75 76 76 72 70 69 69 70 69 70 70 70 70 69 69 72 77 79 79 80 80 80 78 80 79 79 78 79
75 75 76 76 75 75 76 76 73 73 75 74 74 74 75 76 76 74 72 71 70 70 70 70 71 70 69 69 70 71 76 78 79 79 78 78 78 80 81 81 79 78
76 76 75 74 70 72 74 75 73 73 74 75 77 78 75 74 74 75 74 73 71 71 72 72 71 70 68 69 70 71 73 74 79 78 79 79 79 81 82 81 79 78
75 75 75 74 73 72 72 74 74 73 72 75 76 76 79 77 75 76 74 73 71 72 73 74 73 72 69 69 69 69 70 71 74 77 79 79 80 81 78 81 80 79
75 74 74 75 75 73 76 73 73 72 72 71 74 74 77 78 76 77 76 74 73 73 74 75 75 73 70 69 69 68 70 72 75 78 79 80 81 81 82 81 80 79
75 75 74 74 75 75 77 77 74 72 72 73 73 75 76 74 74 76 76 76 75 74 74 74 74 74 71 70 68 69 69 72 72 77 78 79 80 81 82 82 81 81
76 75 75 75 75 75 75 75 75 73 72 74 74 75 76 77 77 77 77 76 76 76 76 75 74 72 71 70 69 68 67 68 73 78 79 79 79 80 80 82 82 81
76 76 76 76 75 75 74 75 75 74 72 72 72 73 74 77 78 78 77 77 78 76 77 75 72 69 69 68 68 68 69 69 70 75 79 79 79 79 80 82 82 81
77 76 76 76 75 75 75 76 77 76 74 73 71 72 73 76 77 76 77 77 78 78 77 75 73 71 65 60 61 69 70 71 71 74 78 78 79 78 79 80 81 81
78 77 76 75 75 75 75 77 78 77 76 75 75 75 73 75 76 77 77 77 78 77 76 76 76 74 59 54 53 56 67 70 72 74 75 78 78 78 78 78 79 81
78 77 75 74 75 76 77 78 77 77 76 77 77 77 76 77 77 77 77 77 77 79 77 76 77 67 55 54 54 54 58 70 71 70 73 75 77 78 78 78 77 78
80 77 76 75 76 76 77 77 77 77 77 77 76 77 77 76 77 77 76 77 76 78 78 77 78 60 52 52 52 53 54 65 77 75 74 77 77 78 78 77 76 76
79 78 76 76 76 77 77 77 77 78 78 78 77 77 76 76 76 76 77 75 76 77 78 78 78 59 51 51 52 51 51 58 77 76 76 77 79 79 78 77 76 75
78 77 77 77 77 75 75 77 77 77 77 77 77 76 75 75 75 76 77 77 76 77 77 77 79 54 50 50 50 50 49 55 75 77 76 76 77 78 78 78 77 76
71 75 73 77 74 75 76 76 76 76 76 77 76 77 77 77 77 77 76 77 77 77 75 76 77 50 50 49 49 49 48 63 73 74 75 75 76 77 78 77 77 76
69 70 69 66 64 68 74 74 76 76 76 77 76 75 75 75 76 76 76 76 76 76 75 76 77 57 48 48 48 47 51 66 70 72 73 73 74 76 77 77 77 77
68 69 68 67 66 64 64 66 70 77 78 77 75 75 75 76 77 77 77 77 75 75 75 75 76 63 47 49 48 47 54 66 69 70 72 73 74 75 76 76 76 67
69 68 69 67 67 66 65 64 64 64 70 75 76 75 76 78 78 77 76 75 76 76 67 72 76 67 48 49 47 47 54 68 69 70 70 71 72 73 74 75 77 69
67 67 67 66 67 67 66 64 63 62 62 62 67 75 74 78 78 78 77 77 77 76 75 75 75 78 62 47 48 47 49 67 72 70 70 70 71 72 73 74 76 77
MSLP
1010.11 1010.27 1010.79 1011.35 1011.55 1011.31 1011.27 1011.51 1011.67 1011.99 1012.51 1012.75 1012.83 1013.03 1013.11 1013.03 1013.11 1013.39 1013.67 1013.95 1014.07 1014.19 1014.23 1014.15 1014.39 1014.83 1015.15 1015.43 1015.71 1016.11 1016.43 1016.83 1017.11 1017.15 1017.43 1017.67 1017.83 1017.99 1018.31 1018.51 1018.63 1018.67
1009.87 1009.83 1010.27 1010.79 1010.99 1010.95 1010.91 1011.03 1011.35 1011.59 1012.03 1012.23 1012.47 1012.67 1012.55 1012.51 1012.67 1012.83 1013.15 1013.43 1013.63 1013.75 1013.83 1013.87 1014.03 1014.39 1014.71 1014.99 1015.35 1015.79 1016.07 1016.35 1016.75 1016.63 1017.07 1017.31 1017.43 1017.59 1017.91 1018.11 1018.35 1018.39
1009.75 1009.91 1010.19 1010.47 1010.59 1010.67 1010.75 1010.79 1010.99 1011.19 1011.59 1011.71 1011.95 1012.31 1012.43 1012.31 1012.39 1012.47 1012.63 1012.91 1013.19 1013.27 1013.43 1013.59 1013.83 1014.07 1014.35 1014.67 1015.07 1015.43 1015.67 1015.91 1016.35 1016.35 1016.63 1016.91 1016.99 1017.23 1017.43 1017.71 1017.95 1018.19
1009.39 1009.51 1009.75 1009.95 1010.03 1010.35 1010.43 1010.59 1010.75 1010.91 1011.11 1011.51 1011.67 1011.79 1011.99 1012.15 1012.23 1012.43 1012.71 1012.95 1013.15 1013.31 1013.39 1013.67 1013.99 1014.31 1014.47 1014.63 1014.95 1015.23 1015.35 1015.47 1015.67 1015.95 1016.35 1016.43 1016.59 1016.79 1017.03 1017.23 1017.55 1017.79
1008.95 1009.07 1009.23 1009.35 1009.55 1009.83 1010.19 1010.59 1010.71 1010.87 1010.95 1011.07 1011.35 1011.59 1011.87 1011.99 1012.71 1013.75 1014.35 1014.39 1013.99 1013.59 1013.87 1013.95 1014.75 1015.51 1015.55 1015.31 1015.03 1015.03 1015.23 1015.35 1015.31 1015.59 1015.95 1016.15 1016.19 1016.43 1016.67 1016.99 1017.31 1017.63
1008.39 1008.51 1008.67 1008.91 1009.07 1009.59 1010.59 1010.67 1010.79 1010.87 1010.91 1011.15 1011.27 1011.31 1011.39 1011.63 1011.99 1012.47 1012.83 1012.87 1013.27 1014.11 1014.59 1014.87 1015.59 1015.91 1016.03 1015.87 1015.35 1014.95 1015.27 1015.19 1015.03 1015.15 1015.51 1015.71 1015.87 1016.03 1016.31 1016.59 1016.99 1017.31
1008.07 1008.15 1008.27 1008.31 1008.59 1009.19 1010.43 1010.47 1010.67 1010.91 1010.91 1010.83 1011.11 1011.15 1011.19 1011.43 1011.79 1012.39 1012.71 1012.55 1012.59 1013.23 1013.95 1014.91 1015.55 1015.47 1015.55 1015.91 1015.59 1015.27 1014.75 1014.59 1014.51 1014.71 1014.99 1015.07 1015.39 1015.75 1015.87 1016.19 1016.55 1016.83
1007.59 1007.67 1007.75 1007.91 1008.15 1008.39 1008.83 1009.15 1009.75 1010.07 1010.07 1010.43 1010.87 1010.91 1010.87 1011.03 1011.19 1011.75 1012.03 1011.95 1011.95 1012.35 1012.71 1012.95 1013.59 1014.11 1014.71 1015.55 1015.91 1015.51 1014.67 1014.35 1014.31 1014.35 1014.59 1014.79 1015.07 1015.27 1015.55 1015.79 1016.15 1016.47
1007.07 1007.27 1007.35 1007.55 1007.79 1007.91 1008.19 1008.55 1008.99 1009.31 1009.31 1009.83 1010.27 1010.39 1010.47 1010.43 1010.55 1011.11 1011.59 1011.75 1011.83 1011.91 1012.47 1013.23 1013.55 1013.51 1013.51 1014.23 1014.91 1015.15 1014.63 1014.11 1013.95 1014.07 1014.23 1014.47 1014.75 1014.87 1015.03 1015.31 1015.75 1016.11
1006.75 1006.83 1006.99 1007.31 1007.99 1008.15 1008.07 1008.19 1008.55 1008.79 1008.95 1009.23 1009.35 1009.51 1009.99 1010.11 1010.15 1010.47 1010.71 1011.11 1011.43 1011.55 1012.03 1012.79 1013.35 1013.71 1013.63 1013.35 1013.59 1014.27 1014.47 1014.15 1013.67 1013.67 1013.71 1013.87 1014.15 1014.35 1014.59 1014.91 1015.35 1015.75
1006.63 1006.63 1006.79 1007.03 1007.51 1007.95 1008.15 1007.95 1008.27 1008.59 1008.79 1008.83 1008.91 1009.15 1009.15 1009.47 1009.99 1010.11 1010.27 1010.55 1010.99 1011.19 1011.55 1012.03 1012.51 1013.03 1013.31 1013.23 1013.31 1013.91 1014.55 1014.59 1014.07 1013.63 1013.31 1013.39 1013.59 1013.83 1014.15 1014.47 1014.83 1015.15
1006.43 1006.51 1006.55 1006.47 1006.79 1007.19 1007.07 1007.51 1007.91 1008.19 1008.39 1008.59 1008.63 1008.71 1008.55 1008.71 1009.23 1009.55 1009.83 1010.15 1010.23 1010.31 1010.87 1011.51 1011.99 1012.55 1012.95 1013.27 1013.31 1013.43 1013.91 1014.07 1013.75 1013.23 1012.87 1012.83 1013.11 1013.23 1013.55 1013.91 1014.27 1014.59
1006.15 1006.19 1006.27 1006.39 1006.35 1006.43 1006.43 1006.75 1007.27 1007.51 1007.79 1008.03 1008.03 1008.07 1008.23 1008.79 1009.07 1009.19 1009.31 1009.71 1009.91 1009.63 1010.11 1010.87 1011.47 1011.95 1012.51 1012.91 1013.15 1013.19 1013.75 1014.07 1013.87 1012.99 1012.43 1012.51 1012.55 1012.75 1012.91 1013.19 1013.55 1013.87
1005.71 1005.75 1005.91 1006.03 1006.19 1006.35 1006.35 1006.51 1006.83 1006.95 1007.11 1007.35 1007.67 1007.75 1007.83 1008.19 1008.47 1008.71 1008.87 1009.23 1009.51 1008.99 1008.95 1009.75 1010.71 1011.43 1011.91 1012.27 1012.75 1013.03 1013.71 1014.19 1013.51 1012.31 1011.99 1011.99 1012.23 1012.39 1012.51 1012.67 1012.87 1013.15
1005.27 1005.39 1005.47 1005.63 1005.87 1006.07 1006.19 1006.31 1006.31 1006.47 1006.63 1006.87 1007.19 1007.39 1007.55 1007.79 1008.11 1008.39 1008.71 1008.91 1008.91 1008.51 1008.35 1008.87 1009.91 1010.83 1011.43 1011.79 1012.11 1012.55 1013.07 1013.51 1013.43 1012.43 1011.59 1011.63 1011.79 1011.95 1011.99 1012.15 1012.39 1012.67
1004.91 1005.11 1005.23 1005.31 1005.51 1005.67 1005.67 1005.67 1005.75 1005.95 1006.23 1006.31 1006.55 1006.79 1007.23 1007.55 1007.91 1008.27 1008.31 1008.39 1008.35 1007.75 1007.63 1008.19 1009.11 1009.95 1010.59 1010.83 1011.07 1011.67 1012.35 1012.83 1012.75 1011.99 1011.11 1011.07 1011.27 1011.47 1011.63 1011.75 1011.91 1012.15
1004.63 1004.75 1004.95 1005.07 1005.11 1005.23 1005.19 1005.15 1005.23 1005.43 1005.59 1005.71 1005.95 1006.39 1006.87 1007.15 1007.47 1007.79 1007.79 1007.87 1007.91 1007.19 1006.87 1007.31 1008.07 1008.95 1009.75 1010.15 1010.35 1011.11 1011.95 1012.47 1012.11 1011.63 1011.15 1010.79 1010.83 1011.07 1011.35 1011.55 1011.63 1011.67
1004.19 1004.35 1004.59 1004.75 1004.75 1004.71 1004.71 1004.71 1004.87 1005.11 1005.35 1005.43 1005.55 1005.99 1006.31 1006.55 1006.91 1006.99 1007.03 1007.27 1007.47 1006.91 1006.27 1006.51 1007.23 1007.91 1008.87 1009.51 1009.99 1010.75 1011.39 1011.67 1011.67 1012.03 1011.39 1010.87 1010.63 1010.71 1010.87 1011.15 1011.47 1011.71
1003.71 1004.03 1004.23 1004.31 1004.35 1004.31 1004.31 1004.43 1004.63 1004.79 1004.95 1005.23 1005.43 1005.51 1005.83 1006.23 1006.27 1006.39 1006.51 1006.67 1007.07 1006.71 1006.03 1006.03 1006.55 1007.15 1007.99 1008.59 1009.11 1009.51 1009.91 1010.27 1010.23 1010.39 1010.47 1010.11 1010.07 1010.11 1010.27 1010.55 1011.03 1011.47
1003.43 1003.63 1003.87 1003.95 1003.91 1003.87 1003.99 1004.19 1004.35 1004.35 1004.43 1004.67 1004.91 1005.23 1005.55 1005.67 1005.75 1005.87 1005.99 1006.39 1006.55 1006.51 1006.11 1005.67 1006.03 1006.67 1007.55 1008.03 1008.43 1008.87 1009.31 1009.71 1009.47 1009.63 1009.71 1009.59 1009.51 1009.51 1009.71 1009.99 1010.31 1010.79
1003.27 1003.43 1003.43 1003.51 1003.55 1003.75 1003.91 1003.91 1003.99 1004.11 1004.27 1004.39 1004.51 1004.75 1004.99 1005.15 1005.31 1005.43 1005.63 1005.79 1006.11 1006.11 1005.99 1005.75 1005.55 1006.31 1007.11 1007.59 1007.91 1008.07 1008.43 1008.87 1008.83 1009.03 1009.31 1009.47 1009.35 1009.23 1009.27 1009.39 1009.71 1009.99
1004.27 1003.59 1003.75 1003.31 1003.67 1003.75 1003.67 1003.71 1003.75 1003.79 1003.87 1003.83 1004.03 1004.11 1004.19 1004.43 1004.63 1004.79 1005.11 1005.35 1005.43 1005.63 1005.83 1005.63 1005.27 1005.83 1006.55 1007.15 1007.55 1007.71 1007.87 1008.43 1008.47 1008.83 1009.03 1009.11 1009.11 1009.03 1008.99 1009.03 1009.23 1009.59
1004.79 1004.47 1004.47 1004.71 1004.91 1004.43 1003.67 1003.59 1003.27 1003.23 1003.23 1003.23 1003.55 1003.59 1003.83 1004.03 1004.19 1004.39 1004.55 1004.79 1004.99 1005.15 1005.31 1005.27 1005.07 1005.47 1006.11 1006.79 1007.27 1007.55 1007.95 1008.07 1008.35 1008.67 1008.71 1008.79 1008.79 1008.67 1008.67 1008.71 1008.87 1009.03
1004.87 1004.71 1004.79 1004.63 1004.67 1005.11 1005.27 1004.79 1003.99 1003.03 1002.87 1002.91 1003.07 1003.19 1003.35 1003.43 1003.59 1003.87 1004.11 1004.27 1004.55 1004.67 1004.75 1004.99 1004.83 1004.91 1005.47 1006.11 1006.75 1007.31 1007.75 1007.75 1007.91 1008.11 1008.23 1008.31 1008.31 1008.35 1008.39 1008.43 1008.31 1008.43
1004.95 1004.63 1004.47 1004.59 1004.59 1004.63 1004.63 1004.79 1004.99 1005.07 1004.03 1003.15 1002.79 1002.87 1002.87 1002.79 1003.03 1003.47 1003.79 1003.99 1004.03 1004.19 1004.39 1004.67 1004.59 1004.55 1005.07 1005.67 1006.31 1007.11 1007.75 1007.55 1007.55 1007.83 1007.99 1007.83 1007.87 1008.03 1008.11 1008.19 1008.03 1008.07
1005.47 1005.11 1004.75 1004.59 1004.39 1004.35 1004.51 1004.51 1004.35 1004.67 1004.91 1004.71 1004.07 1002.87 1002.83 1002.35 1002.55 1002.71 1003.23 1003.47 1003.59 1003.87 1004.11 1004.27 1004.39 1004.19 1004.71 1005.27 1005.87 1006.67 1007.23 1007.07 1006.95 1007.31 1007.35 1007.31 1007.31 1007.47 1007.79 1007.79 1007.63 1007.39
Wind_Speed
13 9 9 10 13 11 11 12 13 12 12 11 10 11 13 13 14 16 16 15 16 16 15 14 15 15 14 14 14 13 13 14 14 13 14 14 13 13 12 13 13 11
13 12 11 10 10 9 10 12 13 12 12 11 8 10 12 12 14 14 15 16 16 16 15 14 15 16 16 15 15 14 13 13 15 12 13 15 13 13 13 14 13 12
15 15 12 13 13 14 13 12 13 11 10 10 9 9 9 10 13 14 14 15 15 16 15 14 15 16 16 15 15 14 14 14 14 14 13 14 13 12 12 13 12 14
16 15 15 16 13 14 13 14 14 12 10 9 10 10 10 10 13 11 10 11 13 12 12 13 13 11 13 15 15 12 14 14 14 13 13 12 13 13 12 12 12 12
19 19 17 14 15 11 11 10 14 13 11 10 10 11 12 10 6 4 3 7 8 8 9 8 3 6 10 10 12 12 13 13 14 14 14 14 12 12 11 11 12 13
16 18 18 17 14 11 8 10 11 12 12 12 11 12 13 9 10 11 13 12 10 7 8 1 4 6 9 13 12 10 12 12 13 15 16 15 14 12 10 11 12 13
15 16 17 15 15 14 16 16 15 15 14 11 7 9 10 10 10 9 9 11 11 11 9 8 11 13 10 11 13 16 14 15 15 15 16 15 13 14 13 13 13 13
16 16 16 16 18 18 15 15 14 14 12 13 10 9 11 11 14 13 13 13 12 11 14 16 16 13 11 9 11 14 15 12 13 15 16 15 14 13 13 11 12 14
15 14 13 15 17 14 17 16 12 10 12 14 13 11 11 12 13 14 14 11 10 11 12 12 13 14 15 15 13 14 15 15 15 16 15 15 14 14 14 13 13 12
15 16 15 12 12 11 17 18 14 11 11 13 14 13 13 12 12 15 15 13 12 12 12 12 13 12 11 12 13 13 14 17 17 16 16 15 15 14 14 13 14 13
15 14 15 15 16 15 18 17 15 14 11 14 12 11 14 13 12 12 12 12 11 13 14 15 15 12 11 11 10 8 11 13 15 15 15 15 14 14 14 14 13 13
14 14 14 17 17 16 19 16 14 14 11 12 11 13 13 12 14 12 12 14 14 15 14 14 14 13 10 9 10 11 12 15 14 15 14 15 15 15 15 14 14 14
15 14 14 14 14 16 16 14 15 15 14 13 12 13 12 11 12 14 12 14 15 15 16 15 14 14 11 10 10 10 12 15 17 18 16 14 15 15 15 15 15 15
13 14 15 15 14 14 14 14 16 14 14 13 11 12 13 14 15 15 15 15 15 15 17 15 14 13 13 12 10 9 8 10 16 16 17 16 14 14 15 15 15 15
12 13 14 15 15 16 16 17 17 16 14 11 10 10 10 13 15 16 17 17 15 14 15 14 12 10 10 11 11 11 12 16 17 19 17 16 16 16 15 16 15 14
12 12 13 14 15 15 16 18 17 18 16 15 14 12 12 12 13 15 16 16 17 16 15 14 13 10 12 17 15 13 15 16 16 19 18 17 17 16 16 16 16 15
11 12 14 15 14 14 15 17 17 15 14 14 14 15 16 15 15 17 16 16 17 15 16 14 14 14 21 20 22 21 15 15 18 14 15 16 16 16 15 16 16 17
12 13 14 14 16 16 16 15 15 15 15 17 18 19 17 16 17 16 16 16 16 15 15 15 15 18 29 31 30 28 22 15 10 11 13 14 14 15 14 14 14 14
12 13 14 15 16 16 15 14 15 16 17 16 18 19 17 18 18 17 16 15 17 17 15 16 16 19 23 27 28 27 27 21 15 16 15 16 15 16 16 15 14 13
11 12 14 14 15 15 15 16 17 18 17 16 16 17 17 16 17 17 15 17 16 16 15 15 17 16 23 23 24 24 23 19 15 16 15 15 16 17 15 16 17 16
10 11 13 14 14 13 14 16 16 15 16 15 15 17 17 16 16 16 16 16 15 15 16 15 15 17 21 21 22 24 23 18 16 16 14 13 14 15 16 17 18 17
11 8 11 12 14 15 15 16 17 16 17 16 15 15 15 15 15 14 16 17 17 17 17 16 14 18 20 20 21 21 23 13 14 19 15 14 15 16 16 15 15 16
9 9 7 7 11 13 12 16 17 17 16 14 15 15 15 15 14 14 14 15 17 16 17 16 14 15 20 19 19 21 16 11 13 18 17 16 16 15 15 14 14 16
9 9 9 8 4 9 14 14 12 12 14 13 14 14 15 15 15 14 14 14 15 17 17 15 15 14 21 20 21 22 18 17 16 18 20 18 17 15 12 13 16 18
10 10 10 8 8 8 6 8 10 12 12 11 13 13 14 15 15 13 13 13 15 17 17 16 17 15 20 21 23 20 17 16 16 16 17 18 17 14 14 15 17 16
10 10 9 8 10 10 9 7 8 10 10 11 13 13 11 13 15 14 15 15 14 15 13 16 19 16 15 23 22 22 24 17 17 16 18 18 16 15 13 16 18 17
Wind_Direction
211 213 207 218 223 218 208 206 205 191 197 200 195 198 207 205 201 201 204 210 211 210 207 199 197 202 206 205 204 205 206 211 213 211 211 210 212 213 215 216 218 218
219 207 209 216 227 223 221 210 199 185 194 192 187 201 208 205 206 205 203 205 205 208 209 205 205 207 208 207 204 206 210 209 214 211 213 212 215 214 216 217 219 221
225 221 215 220 222 224 224 219 211 192 195 193 184 190 197 205 209 207 202 205 207 205 207 208 209 211 210 207 206 207 210 209 213 213 211 213 216 217 215 218 219 220
224 221 218 220 219 219 221 221 216 208 188 190 188 184 196 210 218 215 218 211 213 212 210 210 214 215 217 208 207 212 213 209 210 212 213 216 216 217 219 218 219 220
222 220 219 219 221 210 203 210 214 210 198 186 186 190 202 207 104 79 314 302 282 241 223 208 87 229 247 231 218 208 213 214 213 212 215 217 211 212 216 216 217 220
222 222 221 221 219 206 191 206 212 209 194 193 185 193 197 170 158 176 188 191 190 215 251 107 203 243 240 241 230 218 217 216 214 212 216 217 213 210 212 212 214 218
221 222 221 221 218 207 202 196 202 207 202 189 176 185 179 172 166 181 190 193 177 176 164 172 206 219 217 235 227 221 217 217 215 212 216 214 215 210 213 213 213 217
221 222 221 223 225 221 211 199 189 200 187 190 182 180 178 175 177 178 194 196 183 173 176 191 195 203 203 221 240 237 222 216 217 215 216 217 213 211 206 209 212 218
223 220 217 218 219 211 214 206 186 174 169 178 188 183 186 184 180 181 191 198 185 174 181 192 199 202 195 200 218 227 226 217 215 216 213 213 210 211 209 207 210 213
232 231 225 212 225 230 214 206 193 176 175 183 190 184 179 183 180 185 187 185 177 173 181 190 202 208 207 206 207 218 228 225 216 213 211 211 209 207 208 206 207 206
233 229 232 221 211 211 212 204 196 191 182 193 191 186 182 176 183 191 185 178 176 179 188 195 197 198 209 215 200 195 226 235 230 219 211 208 207 206 206 207 203 207
231 230 230 228 219 220 215 203 194 192 180 193 195 192 190 181 181 190 195 195 186 177 176 183 192 196 203 213 208 207 228 233 228 220 211 206 202 202 204 204 209 205
227 229 227 226 228 222 221 212 196 189 183 190 196 193 182 180 189 195 198 204 197 181 176 180 184 187 192 210 215 216 222 229 220 214 208 206 207 203 204 202 204 206
223 225 227 226 222 225 225 218 212 192 184 188 190 193 191 192 194 198 203 208 203 185 176 176 178 185 193 201 203 210 231 246 239 219 207 204 203 206 205 207 205 204
223 223 226 227 222 223 221 216 216 209 192 186 186 191 193 199 200 202 205 207 203 188 175 171 170 175 186 195 195 202 211 230 229 224 206 201 199 203 206 204 204 204
223 222 223 225 226 226 224 218 216 212 202 190 188 194 201 205 204 206 208 210 207 190 176 173 176 178 193 195 198 199 208 220 223 219 206 202 199 201 204 206 205 206
225 221 223 223 222 224 225 223 219 213 208 205 202 200 203 205 207 207 206 213 217 197 177 177 183 184 189 198 204 202 209 228 224 219 213 203 201 201 201 204 207 208
225 221 221 226 228 223 221 218 217 210 209 213 213 211 211 210 212 211 208 212 221 208 183 180 188 186 178 193 202 202 201 213 213 230 226 210 206 203 202 202 204 208
228 222 221 222 222 224 221 215 214 211 211 210 212 213 213 215 215 212 210 212 221 215 191 186 196 185 177 180 187 190 193 201 207 207 209 206 203 203 202 198 198 204
235 225 226 226 224 220 215 214 214 217 215 214 214 210 210 212 214 211 212 214 217 220 209 195 204 178 181 183 186 187 189 198 212 210 214 212 208 204 200 199 198 199
239 233 232 228 228 217 216 215 214 213 211 209 208 208 207 208 210 209 214 218 220 225 218 210 207 167 183 185 186 185 187 190 208 215 215 219 216 211 206 202 201 201
281 269 253 242 224 226 220 217 216 212 210 208 208 208 206 205 209 210 212 215 217 218 222 216 209 171 186 188 188 191 184 187 200 212 216 219 218 217 212 207 204 202
305 300 289 280 292 283 246 223 220 216 214 208 208 206 204 205 206 206 208 213 216 219 220 220 221 179 185 190 193 194 183 189 197 210 219 220 220 220 217 210 205 203
317 290 288 296 258 245 270 283 279 241 221 214 213 207 205 204 205 205 208 211 216 220 220 221 225 189 184 188 196 195 189 194 198 207 214 218 220 221 218 218 210 204
333 325 304 274 272 269 246 225 253 282 282 242 222 215 211 207 200 204 209 213 214 219 215 220 226 209 184 188 196 192 190 201 202 206 213 215 215 217 217 220 219 209
331 326 309 280 267 260 247 237 235 229 261 286 262 229 223 210 202 206 206 209 210 213 215 217 224 223 184 192 191 191 192 202 210 208 212 212 210 213 213 219 221 217